星链-30935 (STARLINK-30935 )

导读 | 豆包AI

STARLINK-30935是美国SpaceX公司星链(Starlink)星座中的一颗卫星,于2023年11月28日发射升空,属于星链第二代系统部署任务中的卫星。星链项目旨在构建全球覆盖的低轨卫星互联网,可为偏远地区、航空航海以及应急场景提供高速网络通信服务。该卫星运行在近地轨道,是SpaceX推进星链星座组网、拓展全球卫星互联网服务能力的组成部分。

基本信息
目录编号:
58455
目录名称:
STARLINK-30935
国际标识:
2023-183U
轨道中心:
EARTH
卫星名称:
星链-30935
卫星全名:
星链-30935 (STARLINK-30935 )
卫星状态:
在轨 (已飞行884 天)
发射日期:
2023-11-28 UTC
国别 :
美国 (US)
星等 :
--
轨道信息
数据来源 国际轨道数据 AOE轨道数据
星历时间 2026-04-30T05:40:47+0800
22小时前
查看轨道信息
2026-04-28T14:00:00+0800
2天前
查看轨道信息
半长轴 6861.158km 6861.154km
偏心率 0.0001494 0.000358
轨道倾角 43.006° 43.006°
近地点辐角 275.806° 266.199°
升交点赤经 112.654° 121.995°
平近点角 84.262° 351.246°
近地点 481.995km 480.56km
远地点 484.047km 485.474km
周期 94.266分钟 94.266分钟
每日圈数 15.275895 15.275909
详细信息
固有亮度:
5
最大亮度:
0.3
卫星平台:
Starlink v2.0 mini
覆盖范围:
全球
运营商:
太空探索技术公司
运营商所在国:
美国
制造商(研发单位):
太空探索技术公司
制造商所在国:
美国
使用方式:
暂无
卫星简介
星链(Starlink)计划是由太空探索技术公司(SpaceX)提出的一个巨型低轨卫星互联网星座项目,计划在2019年至2024年间在太空搭建由约1.2万颗卫星组成的“星链”网络,其中1584颗将部署在地球上空550千米处的近地轨道,并从2020年开始工作。该卫星仍在工作。
2D轨道图
3D轨道图
轨道高度分析图
轨道倾角分析图
轨道综合分析图
查看轨道综合分析图